| time (UTC) | temp F | wind direction | speed MPH | gust MPH | rain 1hr in | rain 24hr in | rain mn in | humidity % | barometer mb |
| 20260506211315 | 58 | 2 | 1.0 | 6.0 | 0.00 | 1.29 | 0.42 | 62 | 1014.0 |
| 20260506210812 | 59 | 260 | 0.0 | 3.0 | 0.00 | 1.29 | 0.42 | 64 | 1013.9 |
| 20260506210325 | 59 | 327 | 1.0 | 6.0 | 0.00 | 1.29 | 0.42 | 64 | 1013.9 |
| 20260506205837 | 59 | 31 | 0.0 | 6.0 | 0.00 | 1.29 | 0.42 | 61 | 1013.8 |
| 20260506205329 | 59 | 359 | 2.0 | 5.0 | 0.00 | 1.29 | 0.42 | 58 | 1013.8 |
| 20260506204842 | 59 | 286 | 1.0 | 4.0 | 0.00 | 1.32 | 0.42 | 63 | 1013.7 |
| 20260506204314 | 59 | 51 | 0.0 | 6.0 | 0.00 | 1.32 | 0.42 | 65 | 1013.8 |
| 20260506203826 | 58 | 33 | 2.0 | 6.0 | 0.00 | 1.32 | 0.42 | 60 | 1013.7 |
| 20260506203319 | 58 | 358 | 1.0 | 4.0 | 0.00 | 1.32 | 0.42 | 59 | 1013.8 |
| 20260506202812 | 58 | 349 | 0.0 | 4.0 | 0.00 | 1.32 | 0.42 | 63 | 1013.8 |
| 20260506202329 | 58 | 343 | 1.0 | 4.0 | 0.00 | 1.32 | 0.42 | 61 | 1013.9 |
| 20260506201822 | 58 | 12 | 0.0 | 2.0 | 0.00 | 1.32 | 0.42 | 61 | 1013.9 |
| 20260506201315 | 58 | 335 | 0.0 | 7.0 | 0.00 | 1.32 | 0.42 | 63 | 1013.9 |
| 20260506200827 | 58 | 25 | 3.0 | 7.0 | 0.00 | 1.32 | 0.42 | 58 | 1013.8 |
| 20260506200320 | 58 | 41 | 0.0 | 3.0 | 0.00 | 1.32 | 0.42 | 62 | 1013.8 |
| 20260506195813 | 58 | 316 | 1.0 | 5.0 | 0.00 | 1.32 | 0.42 | 60 | 1013.9 |
| 20260506195327 | 58 | 352 | 1.0 | 5.0 | 0.00 | 1.32 | 0.42 | 58 | 1013.9 |
| 20260506194819 | 59 | 30 | 0.0 | 2.0 | 0.00 | 1.40 | 0.42 | 60 | 1013.8 |
| 20260506194316 | 58 | 302 | 0.0 | 3.0 | 0.00 | 1.40 | 0.42 | 63 | 1013.9 |
| 20260506193829 | 58 | 6 | 1.0 | 6.0 | 0.00 | 1.40 | 0.42 | 61 | 1013.7 |
| 20260506193321 | 59 | 296 | 1.0 | 7.0 | 0.00 | 1.40 | 0.42 | 59 | 1013.8 |
| 20260506192835 | 59 | 7 | 4.0 | 7.0 | 0.00 | 1.40 | 0.42 | 55 | 1013.8 |
| 20260506192346 | 60 | 343 | 1.0 | 5.0 | 0.00 | 1.40 | 0.42 | 58 | 1013.7 |
| 20260506191818 | 61 | 41 | 1.0 | 7.0 | 0.00 | 1.40 | 0.42 | 62 | 1013.5 |
| 20260506191311 | 61 | 298 | 2.0 | 7.0 | 0.00 | 1.40 | 0.42 | 59 | 1013.6 |
| 20260506190844 | 61 | 229 | 1.0 | 6.0 | 0.00 | 1.40 | 0.42 | 62 | 1013.4 |
| 20260506190315 | 60 | 352 | 1.0 | 7.0 | 0.00 | 1.40 | 0.42 | 59 | 1013.5 |
| 20260506185812 | 60 | 10 | 1.0 | 7.0 | 0.00 | 1.40 | 0.42 | 63 | 1013.6 |
| 20260506185345 | 60 | 316 | 1.0 | 6.0 | 0.00 | 1.40 | 0.42 | 63 | 1013.6 |
| 20260506184816 | 59 | 30 | 1.0 | 6.0 | 0.00 | 1.40 | 0.42 | 64 | 1013.7 |
| 20260506184349 | 59 | 283 | 1.0 | 7.0 | 0.00 | 1.40 | 0.42 | 64 | 1013.6 |
| 20260506183841 | 58 | 312 | 4.0 | 7.0 | 0.00 | 1.40 | 0.42 | 61 | 1013.6 |
| 20260506183313 | 58 | 8 | 0.0 | 7.0 | 0.00 | 1.40 | 0.42 | 65 | 1013.7 |
| 20260506182825 | 58 | 283 | 3.0 | 7.0 | 0.00 | 1.40 | 0.42 | 63 | 1013.7 |
| 20260506182318 | 58 | 4 | 1.0 | 6.0 | 0.00 | 1.40 | 0.42 | 64 | 1013.6 |
| 20260506181811 | 58 | 356 | 3.0 | 7.0 | 0.00 | 1.40 | 0.42 | 60 | 1013.5 |
| 20260506181324 | 58 | 34 | 2.0 | 9.0 | 0.00 | 1.40 | 0.42 | 57 | 1013.5 |
| 20260506180821 | 59 | 17 | 4.0 | 9.0 | 0.00 | 1.40 | 0.42 | 55 | 1013.5 |
| 20260506180314 | 59 | 296 | 0.0 | 7.0 | 0.00 | 1.40 | 0.42 | 66 | 1013.6 |
| 20260506175827 | 59 | 326 | 1.0 | 7.0 | 0.00 | 1.40 | 0.42 | 59 | 1013.6 |
| 20260506175320 | 59 | 347 | 1.0 | 6.0 | 0.00 | 1.40 | 0.42 | 63 | 1013.8 |
| 20260506174812 | 59 | 287 | 0.0 | 6.0 | 0.00 | 1.40 | 0.42 | 64 | 1013.8 |
| 20260506174325 | 59 | 328 | 3.0 | 6.0 | 0.00 | 1.40 | 0.42 | 63 | 1013.9 |
| 20260506173817 | 60 | 249 | 2.0 | 6.0 | 0.00 | 1.40 | 0.42 | 61 | 1013.9 |
| 20260506173351 | 60 | 281 | 1.0 | 4.0 | 0.00 | 1.40 | 0.42 | 64 | 1014.0 |
| 20260506172822 | 60 | 328 | 0.0 | 6.0 | 0.00 | 1.40 | 0.42 | 62 | 1014.0 |
| 20260506172319 | 59 | 292 | 1.0 | 6.0 | 0.00 | 1.40 | 0.42 | 67 | 1014.0 |
| 20260506171811 | 59 | 275 | 1.0 | 9.0 | 0.00 | 1.40 | 0.42 | 69 | 1014.0 |
| 20260506171324 | 58 | 342 | 1.0 | 9.0 | 0.00 | 1.40 | 0.42 | 68 | 1014.0 |
| 20260506170837 | 58 | 274 | 1.0 | 6.0 | 0.00 | 1.40 | 0.42 | 65 | 1014.0 |
| 20260506170329 | 58 | 342 | 3.0 | 7.0 | 0.00 | 1.40 | 0.42 | 71 | 1013.9 |
| 20260506165822 | 58 | 13 | 3.0 | 7.0 | 0.00 | 1.40 | 0.42 | 69 | 1014.1 |
| 20260506165313 | 57 | 350 | 1.0 | 7.0 | 0.00 | 1.40 | 0.42 | 65 | 1014.1 |
| 20260506164826 | 57 | 15 | 4.0 | 6.0 | 0.00 | 1.40 | 0.42 | 64 | 1014.1 |
| 20260506164322 | 58 | 235 | 1.0 | 5.0 | 0.00 | 1.40 | 0.42 | 66 | 1014.1 |
| 20260506163816 | 57 | 270 | 0.0 | 4.0 | 0.00 | 1.40 | 0.42 | 68 | 1014.1 |
| 20260506163328 | 57 | 69 | 1.0 | 11.0 | 0.00 | 1.40 | 0.42 | 67 | 1014.1 |
| 20260506162821 | 57 | 30 | 5.0 | 11.0 | 0.00 | 1.40 | 0.42 | 65 | 1014.1 |
| 20260506162313 | 56 | 351 | 4.0 | 9.0 | 0.00 | 1.40 | 0.42 | 67 | 1014.1 |
| 20260506161846 | 56 | 30 | 5.0 | 9.0 | 0.00 | 1.40 | 0.42 | 71 | 1013.9 |
| 20260506161317 | 56 | 338 | 3.0 | 6.0 | 0.00 | 1.40 | 0.42 | 66 | 1013.9 |
| 20260506160830 | 56 | 300 | 2.0 | 6.0 | 0.00 | 1.40 | 0.42 | 67 | 1013.9 |
| 20260506160322 | 56 | 294 | 1.0 | 8.0 | 0.00 | 1.40 | 0.42 | 68 | 1013.8 |
| 20260506155820 | 57 | 341 | 4.0 | 7.0 | 0.00 | 1.40 | 0.42 | 65 | 1014.0 |
| 20260506155312 | 57 | 1 | 1.0 | 5.0 | 0.00 | 1.40 | 0.42 | 69 | 1013.9 |
| 20260506154824 | 57 | 6 | 2.0 | 8.0 | 0.00 | 1.40 | 0.42 | 69 | 1014.0 |
| 20260506154317 | 57 | 346 | 4.0 | 7.0 | 0.00 | 1.40 | 0.42 | 72 | 1014.0 |
| 20260506153830 | 56 | 345 | 1.0 | 7.0 | 0.00 | 1.40 | 0.42 | 73 | 1014.1 |
| 20260506153323 | 55 | 231 | 0.0 | 7.0 | 0.00 | 1.40 | 0.42 | 73 | 1014.2 |
| 20260506152815 | 54 | 354 | 5.0 | 7.0 | 0.00 | 1.40 | 0.42 | 68 | 1014.0 |
| 20260506152349 | 54 | 348 | 1.0 | 7.0 | 0.00 | 1.40 | 0.42 | 70 | 1013.9 |
| 20260506151823 | 54 | 4 | 3.0 | 7.0 | 0.00 | 1.40 | 0.42 | 70 | 1013.9 |
| 20260506151336 | 54 | 341 | 4.0 | 7.0 | 0.00 | 1.40 | 0.42 | 71 | 1014.0 |
| 20260506150827 | 54 | 45 | 1.0 | 6.0 | 0.00 | 1.40 | 0.42 | 76 | 1014.1 |
| 20260506150340 | 53 | 37 | 3.0 | 9.0 | 0.00 | 1.40 | 0.42 | 70 | 1014.0 |
| 20260506145832 | 53 | 19 | 4.0 | 11.0 | 0.00 | 1.40 | 0.42 | 72 | 1013.6 |
| 20260506145323 | 53 | 320 | 3.0 | 11.0 | 0.00 | 1.40 | 0.42 | 75 | 1013.4 |
| 20260506144816 | 53 | 53 | 4.0 | 8.0 | 0.00 | 1.40 | 0.42 | 74 | 1013.1 |
| 20260506144329 | 52 | 23 | 5.0 | 11.0 | 0.00 | 1.40 | 0.42 | 75 | 1013.1 |
| 20260506143822 | 51 | 13 | 7.0 | 11.0 | 0.00 | 1.40 | 0.42 | 73 | 1013.0 |
| 20260506143314 | 51 | 30 | 5.0 | 11.0 | 0.00 | 1.40 | 0.42 | 74 | 1013.0 |
| 20260506142810 | 51 | 37 | 5.0 | 10.0 | 0.00 | 1.40 | 0.42 | 77 | 1012.7 |
| 20260506142324 | 51 | 314 | 4.0 | 9.0 | 0.00 | 1.40 | 0.42 | 77 | 1012.8 |
| 20260506141816 | 51 | 31 | 5.0 | 9.0 | 0.00 | 1.40 | 0.42 | 76 | 1012.7 |
| 20260506141330 | 51 | 311 | 4.0 | 7.0 | 0.00 | 1.40 | 0.42 | 82 | 1012.7 |
| 20260506140822 | 50 | 319 | 3.0 | 7.0 | 0.00 | 1.40 | 0.42 | 81 | 1012.8 |
| 20260506140315 | 50 | 36 | 4.0 | 11.0 | 0.00 | 1.40 | 0.42 | 80 | 1012.8 |
| 20260506135848 | 49 | 304 | 5.0 | 11.0 | 0.00 | 1.40 | 0.42 | 79 | 1012.7 |
| 20260506135320 | 50 | 53 | 3.0 | 11.0 | 0.00 | 1.40 | 0.42 | 81 | 1012.7 |
| 20260506134816 | 50 | 349 | 4.0 | 11.0 | 0.00 | 1.40 | 0.42 | 83 | 1012.5 |
| 20260506134330 | 49 | 18 | 3.0 | 8.0 | 0.00 | 1.40 | 0.42 | 82 | 1012.5 |
| 20260506133822 | 50 | 11 | 4.0 | 8.0 | 0.00 | 1.40 | 0.42 | 82 | 1012.7 |
| 20260506133315 | 49 | 15 | 1.0 | 5.0 | 0.00 | 1.40 | 0.42 | 86 | 1013.1 |
| 20260506132828 | 49 | 356 | 1.0 | 4.0 | 0.00 | 1.40 | 0.42 | 86 | 1012.8 |
| 20260506132321 | 48 | 348 | 0.0 | 5.0 | 0.00 | 1.40 | 0.42 | 87 | 1012.8 |
| 20260506131813 | 48 | 342 | 1.0 | 5.0 | 0.00 | 1.40 | 0.42 | 87 | 1012.8 |
| 20260506131346 | 48 | 316 | 2.0 | 4.0 | 0.00 | 1.40 | 0.42 | 86 | 1012.8 |
| 20260506130818 | 47 | 351 | 0.0 | 7.0 | 0.00 | 1.40 | 0.42 | 87 | 1012.7 |
| 20260506130315 | 47 | 359 | 1.0 | 7.0 | 0.00 | 1.40 | 0.42 | 87 | 1012.5 |
| 20260506125828 | 47 | 333 | 2.0 | 6.0 | 0.00 | 1.40 | 0.42 | 88 | 1012.4 |
| 20260506125321 | 47 | 321 | 0.0 | 5.0 | 0.00 | 1.40 | 0.42 | 88 | 1012.5 |
| 20260506124813 | 47 | 329 | 1.0 | 5.0 | 0.00 | 1.41 | 0.42 | 89 | 1012.5 |
| 20260506124326 | 47 | 343 | 1.0 | 4.0 | 0.00 | 1.41 | 0.42 | 89 | 1012.4 |
| 20260506123818 | 46 | 330 | 0.0 | 5.0 | 0.00 | 1.41 | 0.42 | 88 | 1012.4 |
| 20260506123311 | 46 | 339 | 2.0 | 7.0 | 0.00 | 1.41 | 0.42 | 88 | 1012.3 |
| 20260506122824 | 46 | 22 | 2.0 | 7.0 | 0.00 | 1.41 | 0.42 | 88 | 1012.3 |
| 20260506122321 | 46 | 330 | 2.0 | 5.0 | 0.00 | 1.41 | 0.42 | 89 | 1012.3 |
| 20260506121814 | 46 | 13 | 2.0 | 6.0 | 0.00 | 1.41 | 0.42 | 90 | 1012.0 |
| 20260506121327 | 46 | 21 | 2.0 | 7.0 | 0.00 | 1.41 | 0.42 | 90 | 1011.9 |
| 20260506120319 | 45 | 2 | 2.0 | 6.0 | 0.00 | 1.41 | 0.42 | 91 | 1011.7 |
| 20260506115811 | 45 | 19 | 2.0 | 7.0 | 0.00 | 1.41 | 0.42 | 91 | 1011.7 |
| 20260506115324 | 45 | 333 | 1.0 | 8.0 | 0.00 | 1.41 | 0.42 | 91 | 1011.6 |
| 20260506114837 | 45 | 356 | 2.0 | 8.0 | 0.00 | 1.44 | 0.42 | 91 | 1011.5 |
| 20260506114313 | 45 | 10 | 1.0 | 4.0 | 0.00 | 1.44 | 0.42 | 92 | 1011.4 |
| 20260506113826 | 45 | 13 | 2.0 | 4.0 | 0.00 | 1.44 | 0.42 | 92 | 1011.3 |
| 20260506113319 | 45 | 344 | 1.0 | 5.0 | 0.00 | 1.44 | 0.42 | 91 | 1011.1 |
| 20260506112811 | 44 | 275 | 2.0 | 4.0 | 0.00 | 1.44 | 0.42 | 91 | 1011.1 |
| 20260506112324 | 44 | 22 | 1.0 | 5.0 | 0.00 | 1.44 | 0.42 | 91 | 1010.8 |
| 20260506111817 | 44 | 342 | 2.0 | 6.0 | 0.00 | 1.44 | 0.42 | 92 | 1010.6 |
| 20260506111330 | 44 | 329 | 3.0 | 6.0 | 0.00 | 1.44 | 0.42 | 91 | 1010.3 |
| 20260506110823 | 44 | 11 | 2.0 | 5.0 | 0.00 | 1.44 | 0.42 | 91 | 1010.3 |
| 20260506110320 | 44 | 51 | 2.0 | 6.0 | 0.00 | 1.44 | 0.42 | 92 | 1010.4 |
| 20260506105813 | 44 | 18 | 3.0 | 6.0 | 0.00 | 1.44 | 0.42 | 91 | 1010.1 |
| 20260506105326 | 44 | 346 | 3.0 | 6.0 | 0.00 | 1.44 | 0.42 | 92 | 1010.5 |
| 20260506104818 | 44 | 359 | 3.0 | 5.0 | 0.00 | 1.46 | 0.42 | 92 | 1010.6 |
| 20260506104330 | 44 | 323 | 0.0 | 2.0 | 0.00 | 1.46 | 0.42 | 92 | 1010.8 |
| 20260506103822 | 44 | 35 | 1.0 | 5.0 | 0.00 | 1.46 | 0.42 | 92 | 1010.7 |
| 20260506103335 | 44 | 18 | 2.0 | 5.0 | 0.00 | 1.46 | 0.42 | 92 | 1010.4 |
| 20260506102827 | 44 | 357 | 1.0 | 3.0 | 0.00 | 1.46 | 0.42 | 93 | 1010.4 |
| 20260506102323 | 44 | 338 | 1.0 | 3.0 | 0.00 | 1.46 | 0.42 | 93 | 1010.5 |
| 20260506101816 | 44 | 271 | 0.0 | 2.0 | 0.00 | 1.46 | 0.42 | 93 | 1010.4 |
| 20260506101329 | 44 | 32 | 0.0 | 5.0 | 0.00 | 1.46 | 0.42 | 93 | 1010.1 |
| 20260506100822 | 44 | 338 | 1.0 | 5.0 | 0.00 | 1.46 | 0.42 | 93 | 1009.5 |
| 20260506100315 | 44 | 34 | 2.0 | 5.0 | 0.00 | 1.46 | 0.42 | 93 | 1009.3 |
| 20260506095848 | 44 | 335 | 2.0 | 7.0 | 0.00 | 1.46 | 0.42 | 92 | 1009.4 |
| 20260506095320 | 44 | 328 | 4.0 | 9.0 | 0.00 | 1.46 | 0.42 | 93 | 1009.4 |
| 20260506094813 | 44 | 347 | 4.0 | 9.0 | 0.00 | 1.58 | 0.42 | 93 | 1009.5 |
| 20260506094325 | 44 | 347 | 2.0 | 5.0 | 0.00 | 1.58 | 0.42 | 94 | 1009.9 |
| 20260506093822 | 43 | 23 | 2.0 | 4.0 | 0.00 | 1.58 | 0.42 | 94 | 1010.0 |
| 20260506093315 | 43 | 336 | 2.0 | 5.0 | 0.00 | 1.58 | 0.42 | 94 | 1010.2 |
| 20260506092848 | 43 | 357 | 1.0 | 5.0 | 0.00 | 1.58 | 0.42 | 94 | 1010.1 |
| 20260506092320 | 43 | 41 | 2.0 | 6.0 | 0.00 | 1.58 | 0.42 | 94 | 1009.8 |
| 20260506091812 | 43 | 1 | 3.0 | 7.0 | 0.00 | 1.58 | 0.42 | 94 | 1009.4 |
| 20260506091345 | 43 | 32 | 3.0 | 8.0 | 0.00 | 1.58 | 0.42 | 94 | 1009.2 |
| 20260506090836 | 43 | 308 | 3.0 | 8.0 | 0.00 | 1.58 | 0.42 | 95 | 1009.2 |
| 20260506090328 | 43 | 34 | 4.0 | 8.0 | 0.00 | 1.58 | 0.42 | 95 | 1009.0 |
| 20260506085841 | 43 | 34 | 3.0 | 7.0 | 0.00 | 1.58 | 0.42 | 95 | 1009.1 |
| 20260506085313 | 43 | 319 | 2.0 | 7.0 | 0.00 | 1.58 | 0.42 | 95 | 1009.1 |
| 20260506084830 | 43 | 3 | 4.0 | 7.0 | 0.00 | 1.58 | 0.42 | 95 | 1008.8 |
| 20260506084323 | 43 | 44 | 3.0 | 6.0 | 0.00 | 1.58 | 0.42 | 95 | 1008.9 |
| 20260506083836 | 43 | 18 | 2.0 | 8.0 | 0.00 | 1.58 | 0.42 | 95 | 1009.1 |
| 20260506083348 | 43 | 329 | 4.0 | 9.0 | 0.00 | 1.58 | 0.42 | 95 | 1009.1 |
| 20260506082840 | 43 | 23 | 5.0 | 9.0 | 0.01 | 1.58 | 0.42 | 95 | 1008.7 |
| 20260506082311 | 43 | 351 | 4.0 | 8.0 | 0.02 | 1.58 | 0.42 | 95 | 1008.7 |
| 20260506081824 | 43 | 43 | 5.0 | 6.0 | 0.02 | 1.58 | 0.42 | 95 | 1009.0 |
| 20260506081317 | 43 | 15 | 3.0 | 8.0 | 0.02 | 1.58 | 0.42 | 95 | 1009.0 |
| 20260506080830 | 43 | 40 | 4.0 | 11.0 | 0.03 | 1.58 | 0.42 | 95 | 1009.0 |
| 20260506080323 | 43 | 10 | 6.0 | 11.0 | 0.04 | 1.58 | 0.42 | 95 | 1008.7 |
| 20260506073325 | 43 | 27 | 5.0 | 12.0 | 0.07 | 1.58 | 0.42 | 94 | 1008.7 |
| 20260506072837 | 43 | 31 | 7.0 | 13.0 | 0.06 | 1.57 | 0.41 | 94 | 1008.9 |
| 20260506072317 | 43 | 31 | 7.0 | 13.0 | 0.05 | 1.56 | 0.40 | 94 | 1009.1 |
| 20260506071850 | 43 | 316 | 5.0 | 12.0 | 0.05 | 1.56 | 0.40 | 94 | 1009.2 |
| 20260506071326 | 43 | 319 | 5.0 | 13.0 | 0.05 | 1.56 | 0.40 | 94 | 1009.1 |
| 20260506070818 | 44 | 13 | 6.0 | 14.0 | 0.04 | 1.55 | 0.39 | 94 | 1009.0 |
| 20260506070352 | 44 | 46 | 7.0 | 15.0 | 0.03 | 1.54 | 0.38 | 95 | 1008.9 |
| 20260506062316 | 46 | 349 | 5.0 | 14.0 | 0.06 | 1.51 | 0.35 | 96 | 1008.5 |
| 20260506061829 | 46 | 321 | 7.0 | 14.0 | 0.06 | 1.51 | 0.35 | 97 | 1008.4 |
| 20260506061322 | 46 | 354 | 5.0 | 13.0 | 0.07 | 1.51 | 0.35 | 97 | 1008.3 |
| 20260506060815 | 46 | 346 | 7.0 | 13.0 | 0.08 | 1.51 | 0.35 | 97 | 1008.2 |
| 20260506060328 | 47 | 6 | 4.0 | 13.0 | 0.10 | 1.51 | 0.35 | 97 | 1008.1 |
| 20260506051319 | 47 | 39 | 10.0 | 20.0 | 0.22 | 1.44 | 0.28 | 97 | 1007.8 |
| 20260506050816 | 47 | 31 | 11.0 | 20.0 | 0.21 | 1.43 | 0.27 | 97 | 1007.5 |
| 20260506050328 | 47 | 68 | 10.0 | 15.0 | 0.22 | 1.41 | 0.25 | 97 | 1007.9 |
| 20260506044827 | 47 | 32 | 6.0 | 14.0 | 0.22 | 1.37 | 0.21 | 97 | 1008.5 |
| 20260506044339 | 47 | 356 | 5.0 | 13.0 | 0.21 | 1.34 | 0.18 | 97 | 1008.4 |
| 20260506043811 | 48 | 21 | 6.0 | 16.0 | 0.25 | 1.32 | 0.16 | 97 | 1008.2 |
| 20260506043324 | 48 | 23 | 9.0 | 15.0 | 0.25 | 1.29 | 0.13 | 97 | 1007.8 |
| 20260506042821 | 48 | 37 | 9.0 | 14.0 | 0.24 | 1.27 | 0.11 | 97 | 1007.5 |
| 20260506042313 | 48 | 345 | 8.0 | 17.0 | 0.24 | 1.25 | 0.09 | 97 | 1007.5 |
| 20260506041826 | 48 | 22 | 11.0 | 17.0 | 0.24 | 1.24 | 0.08 | 97 | 1007.1 |
| 20260506041339 | 49 | 358 | 8.0 | 12.0 | 0.25 | 1.22 | 0.06 | 97 | 1007.4 |
| 20260506040851 | 49 | 43 | 6.0 | 12.0 | 0.25 | 1.21 | 0.05 | 97 | 1007.3 |
| 20260506040322 | 49 | 23 | 8.0 | 12.0 | 0.23 | 1.19 | 0.03 | 97 | 1007.7 |
| 20260506035815 | 49 | 29 | 7.0 | 12.0 | 0.22 | 1.17 | 0.01 | 97 | 1007.8 |
| 20260506035328 | 49 | 20 | 5.0 | 11.0 | 0.21 | 1.16 | 0.00 | 97 | 1007.8 |
| 20260506034841 | 49 | 22 | 5.0 | 11.0 | 0.20 | 1.15 | 1.15 | 97 | 1007.7 |
| 20260506034312 | 49 | 341 | 5.0 | 9.0 | 0.18 | 1.13 | 1.13 | 97 | 1007.9 |
| 20260506033830 | 49 | 351 | 3.0 | 10.0 | 0.12 | 1.07 | 1.07 | 97 | 1008.3 |
| 20260506033343 | 49 | 328 | 6.0 | 10.0 | 0.09 | 1.04 | 1.04 | 97 | 1007.8 |
| 20260506032814 | 50 | 24 | 4.0 | 10.0 | 0.08 | 1.03 | 1.03 | 97 | 1007.5 |
| 20260506032327 | 50 | 27 | 5.0 | 10.0 | 0.06 | 1.01 | 1.01 | 97 | 1007.4 |
| 20260506031820 | 50 | 36 | 6.0 | 9.0 | 0.04 | 0.99 | 0.99 | 97 | 1007.2 |
| 20260506031333 | 50 | 41 | 4.0 | 11.0 | 0.04 | 0.97 | 0.97 | 97 | 1007.3 |
| 20260506030825 | 50 | 27 | 6.0 | 11.0 | 0.05 | 0.96 | 0.96 | 97 | 1007.2 |
| 20260506030318 | 50 | 33 | 7.0 | 11.0 | 0.08 | 0.96 | 0.96 | 97 | 1007.2 |
| 20260506025830 | 50 | 51 | 5.0 | 11.0 | 0.08 | 0.95 | 0.95 | 97 | 1007.2 |
| 20260506025327 | 50 | 34 | 6.0 | 11.0 | 0.09 | 0.95 | 0.95 | 97 | 1007.3 |
| 20260506024840 | 50 | 49 | 6.0 | 11.0 | 0.10 | 0.95 | 0.95 | 97 | 1007.4 |
| 20260506024332 | 50 | 72 | 6.0 | 13.0 | 0.12 | 0.95 | 0.95 | 97 | 1007.4 |
| 20260506023844 | 50 | 44 | 6.0 | 13.0 | 0.14 | 0.95 | 0.95 | 97 | 1007.4 |
| 20260506023316 | 50 | 333 | 6.0 | 12.0 | 0.15 | 0.95 | 0.95 | 97 | 1007.4 |
| 20260506022828 | 50 | 40 | 5.0 | 11.0 | 0.18 | 0.95 | 0.95 | 97 | 1007.6 |
| 20260506022322 | 50 | 33 | 7.0 | 11.0 | 0.20 | 0.95 | 0.95 | 97 | 1007.4 |
| 20260506021814 | 50 | 49 | 6.0 | 11.0 | 0.20 | 0.94 | 0.94 | 97 | 1007.6 |
| 20260506021327 | 50 | 5 | 5.0 | 10.0 | 0.20 | 0.93 | 0.93 | 97 | 1007.8 |
| 20260506020820 | 50 | 37 | 7.0 | 10.0 | 0.17 | 0.90 | 0.91 | 96 | 1008.0 |
| 20260506020317 | 51 | 360 | 4.0 | 10.0 | 0.15 | 0.88 | 0.88 | 96 | 1008.2 |
| 20260506015829 | 51 | 30 | 6.0 | 10.0 | 0.14 | 0.87 | 0.87 | 97 | 1008.3 |
| 20260506015322 | 51 | 345 | 5.0 | 8.0 | 0.14 | 0.86 | 0.86 | 97 | 1008.3 |
| 20260506014816 | 51 | 338 | 4.0 | 8.0 | 0.14 | 0.85 | 0.85 | 97 | 1008.2 |
| 20260506014328 | 51 | 327 | 4.0 | 7.0 | 0.15 | 0.83 | 0.83 | 96 | 1008.1 |
| 20260506013821 | 51 | 360 | 4.0 | 8.0 | 0.14 | 0.81 | 0.81 | 96 | 1008.1 |
| 20260506013314 | 52 | 333 | 3.0 | 10.0 | 0.14 | 0.79 | 0.79 | 96 | 1008.1 |
| 20260506012811 | 52 | 39 | 4.0 | 10.0 | 0.14 | 0.77 | 0.77 | 96 | 1007.9 |
| 20260506012324 | 52 | 338 | 2.0 | 7.0 | 0.14 | 0.75 | 0.75 | 96 | 1007.9 |
| 20260506011816 | 52 | 2 | 3.0 | 7.0 | 0.14 | 0.74 | 0.74 | 96 | 1007.6 |
| 20260506011329 | 53 | 7 | 3.0 | 12.0 | 0.13 | 0.73 | 0.73 | 95 | 1007.7 |
| 20260506010822 | 53 | 24 | 4.0 | 10.0 | 0.13 | 0.73 | 0.73 | 95 | 1007.5 |
| 20260506010315 | 54 | 27 | 5.0 | 10.0 | 0.13 | 0.73 | 0.73 | 94 | 1007.7 |
| 20260506005828 | 55 | 23 | 4.0 | 9.0 | 0.13 | 0.73 | 0.73 | 94 | 1007.6 |
| 20260506005321 | 57 | 352 | 1.0 | 4.0 | 0.13 | 0.72 | 0.72 | 95 | 1007.8 |
| 20260506004818 | 58 | 272 | 0.0 | 4.0 | 0.12 | 0.71 | 0.71 | 97 | 1007.8 |
| 20260506004351 | 58 | 251 | 1.0 | 5.0 | 0.10 | 0.68 | 0.68 | 97 | 1007.8 |
| 20260506003822 | 59 | 255 | 3.0 | 5.0 | 0.11 | 0.67 | 0.67 | 97 | 1007.9 |
| 20260506003315 | 59 | 262 | 2.0 | 4.0 | 0.10 | 0.65 | 0.65 | 97 | 1008.0 |
| 20260506002848 | 59 | 259 | 3.0 | 5.0 | 0.08 | 0.63 | 0.63 | 96 | 1007.9 |
| 20260506002320 | 59 | 248 | 3.0 | 5.0 | 0.06 | 0.61 | 0.61 | 96 | 1007.9 |
| 20260506001812 | 59 | 246 | 0.0 | 2.0 | 0.06 | 0.60 | 0.60 | 96 | 1007.5 |
| 20260506001326 | 59 | 247 | 1.0 | 4.0 | 0.06 | 0.60 | 0.60 | 96 | 1007.3 |
| 20260506000819 | 59 | 214 | 1.0 | 6.0 | 0.06 | 0.60 | 0.60 | 96 | 1007.1 |
| 20260506000316 | 59 | 211 | 2.0 | 6.0 | 0.07 | 0.60 | 0.60 | 96 | 1007.1 |
| 20260505235828 | 59 | 238 | 2.0 | 8.0 | 0.07 | 0.60 | 0.60 | 96 | 1007.1 |
| 20260505235321 | 59 | 231 | 3.0 | 8.0 | 0.06 | 0.59 | 0.59 | 96 | 1007.1 |
| 20260505234814 | 59 | 221 | 4.0 | 9.0 | 0.07 | 0.59 | 0.59 | 96 | 1007.1 |
| 20260505234327 | 59 | 198 | 4.0 | 10.0 | 0.07 | 0.58 | 0.58 | 96 | 1007.3 |
| 20260505233819 | 60 | 136 | 2.0 | 11.0 | 0.06 | 0.56 | 0.56 | 96 | 1007.4 |
| 20260505233312 | 60 | 197 | 6.0 | 11.0 | 0.05 | 0.55 | 0.55 | 97 | 1007.4 |
| 20260505232845 | 60 | 241 | 3.0 | 6.0 | 0.06 | 0.55 | 0.55 | 97 | 1007.3 |
| 20260505232317 | 60 | 188 | 4.0 | 10.0 | 0.06 | 0.55 | 0.55 | 97 | 1007.3 |
| 20260505231814 | 60 | 209 | 5.0 | 14.0 | 0.06 | 0.54 | 0.54 | 97 | 1007.3 |
| 20260505231327 | 60 | 224 | 6.0 | 14.0 | 0.06 | 0.54 | 0.54 | 97 | 1007.4 |
| 20260505230819 | 60 | 241 | 2.0 | 5.0 | 0.07 | 0.54 | 0.54 | 97 | 1007.4 |
| 20260505230333 | 60 | 216 | 2.0 | 4.0 | 0.07 | 0.53 | 0.53 | 97 | 1007.4 |
| 20260505225824 | 60 | 207 | 2.0 | 6.0 | 0.08 | 0.53 | 0.53 | 97 | 1007.4 |
| 20260505225337 | 60 | 224 | 2.0 | 6.0 | 0.10 | 0.53 | 0.53 | 97 | 1007.6 |
| 20260505224829 | 60 | 214 | 2.0 | 6.0 | 0.11 | 0.52 | 0.52 | 97 | 1007.5 |
| 20260505224322 | 60 | 200 | 2.0 | 8.0 | 0.12 | 0.51 | 0.51 | 97 | 1007.6 |
| 20260505223815 | 60 | 226 | 3.0 | 8.0 | 0.16 | 0.50 | 0.50 | 97 | 1007.6 |
| 20260505223311 | 60 | 184 | 1.0 | 7.0 | 0.18 | 0.50 | 0.50 | 97 | 1007.7 |
| 20260505222825 | 60 | 154 | 3.0 | 7.0 | 0.18 | 0.49 | 0.49 | 97 | 1007.8 |
| 20260505222317 | 60 | 172 | 3.0 | 7.0 | 0.19 | 0.49 | 0.49 | 97 | 1007.8 |
| 20260505221910 | 60 | 215 | 2.0 | 6.0 | 0.18 | 0.48 | 0.48 | 97 | 1007.9 |
| 20260505221338 | 60 | 243 | 2.0 | 6.0 | 0.17 | 0.47 | 0.47 | 96 | 1008.0 |
| 20260505220830 | 60 | 225 | 2.0 | 5.0 | 0.18 | 0.47 | 0.47 | 96 | 1008.1 |
| 20260505220323 | 60 | 207 | 3.0 | 7.0 | 0.17 | 0.46 | 0.46 | 96 | 1008.1 |
| 20260505215816 | 60 | 219 | 3.0 | 7.0 | 0.16 | 0.45 | 0.45 | 96 | 1008.2 |
| 20260505215325 | 60 | 208 | 4.0 | 7.0 | 0.14 | 0.43 | 0.43 | 96 | 1008.2 |
| 20260505214818 | 60 | 248 | 1.0 | 8.0 | 0.12 | 0.41 | 0.41 | 96 | 1008.2 |
| 20260505214315 | 60 | 213 | 3.0 | 6.0 | 0.09 | 0.38 | 0.38 | 96 | 1008.2 |
| 20260505213828 | 60 | 168 | 2.0 | 7.0 | 0.05 | 0.34 | 0.34 | 96 | 1008.2 |
| 20260505213321 | 60 | 215 | 3.0 | 8.0 | 0.03 | 0.32 | 0.32 | 96 | 1008.1 |
| 20260505212828 | 60 | 213 | 4.0 | 9.0 | 0.02 | 0.31 | 0.31 | 96 | 1008.0 |
| 20260505212321 | 60 | 210 | 5.0 | 9.0 | 0.01 | 0.30 | 0.30 | 95 | 1008.1 |
| 20260505211834 | 60 | 219 | 3.0 | 10.0 | 0.01 | 0.30 | 0.30 | 95 | 1008.1 |